Date String (YYYY-MM-DD hh:mm:ss) UTC,Instrument flags,absolute air pressure of the measurement (hPa),sample flow rate (lpm),inlet stack bypass flow (lpm),air temperature of the measurement (°C),ambient temperature measured by the external sensor (°C),aerosol sample conditioner tube jacket temperature (°C),OPC LED temperature (°C),internal box temperature (°C),relative humidity of the measurement (%),span deviation,mass concentration of particles derived from Lorenz-Mie calculation of OPC scattering (μg/m³),mass concentration of particles derived from Lorenz-Mie calculation of OPC scattering (μg/m³),mass concentration of particles derived from Lorenz-Mie calculation of OPC scattering (μg/m³)
DateTimeUTC,F1_M11,P_M11,Q1_M11,Q2_M11,T1_M11,T2_M11,T3_M11,T4_M11,T5_M11,U1_M11,ZSPAN_M11,X0_M11,X2_M11,X1_M11
2023-08-07 06:00:00,SystemResetWarning,0834.5,5.00,000.00,029.9,028.5,000.0,038.5,031.4,30.9,-000.9,0010.99,0007.89,0007.37
2023-08-07 06:01:00,SystemResetWarning,0834.5,5.00,000.00,029.9,028.5,000.0,038.5,031.4,30.8,-001.0,0010.86,0007.86,0007.37
2023-08-07 06:02:00,SystemResetWarning,0834.5,5.00,000.00,029.9,028.5,000.0,038.5,031.4,30.8,-000.7,0010.74,0007.83,0007.37
2023-08-07 06:03:00,SystemResetWarning,0834.5,5.00,000.00,029.9,028.5,000.0,038.6,031.4,30.7,-000.4,0010.74,0007.82,0007.38
2023-08-07 06:04:00,SystemResetWarning,0834.7,4.99,000.00,029.9,028.5,000.0,038.6,031.5,30.6,-000.9,0010.76,0007.81,0007.37
2023-08-07 06:05:00,SystemResetWarning,0834.5,5.00,000.00,029.9,028.5,000.0,038.6,031.5,30.5,-000.7,0010.79,0007.83,0007.39
2023-08-07 06:06:00,SystemResetWarning,0834.5,5.00,000.00,029.9,028.6,000.0,038.6,031.5,30.2,-000.7,0010.69,0007.82,0007.39
2023-08-07 06:07:00,SystemResetWarning,0834.5,5.00,000.00,029.9,028.6,000.0,038.6,031.5,30.0,-000.5,0010.58,0007.77,0007.39
2023-08-07 06:08:00,SystemResetWarning,0834.8,5.00,000.00,029.9,028.6,000.0,038.6,031.5,29.9,-000.3,0010.21,0007.75,0007.39
2023-08-07 06:09:00,SystemResetWarning,0835.1,5.01,000.00,030.0,028.7,000.0,038.6,031.5,29.9,0000.1,0010.13,0007.73,0007.39
2023-08-07 06:10:00,SystemResetWarning,0834.8,5.00,000.00,030.0,028.2,000.0,038.6,031.5,29.9,0000.0,0010.15,0007.73,0007.37
2023-08-07 06:11:00,SystemResetWarning,0834.5,4.99,000.00,029.9,026.3,000.0,038.4,031.2,29.8,0000.0,0010.18,0007.71,0007.34
2023-08-07 06:12:00,SystemResetWarning,0834.5,5.00,000.00,029.9,025.2,000.0,038.3,031.0,29.7,0000.1,0010.23,0007.73,0007.35
2023-08-07 06:13:00,SystemResetWarning,0834.5,5.02,000.00,029.7,025.2,000.0,038.3,030.7,29.9,-000.7,0010.33,0007.76,0007.36
2023-08-07 06:14:00,SystemResetWarning,0834.5,5.00,000.00,029.6,025.6,000.0,038.3,030.7,30.1,-001.2,0010.46,0007.78,0007.37
2023-08-07 06:15:00,SystemResetWarning,0834.5,5.00,000.00,029.5,026.0,000.0,038.3,030.7,30.1,-001.3,0010.38,0007.76,0007.37
2023-08-07 06:16:00,SystemResetWarning,0834.5,5.01,000.00,029.5,026.4,000.0,038.3,030.8,30.0,-001.5,0010.34,0007.75,0007.36
2023-08-07 06:17:00,SystemResetWarning,0834.5,5.00,000.00,029.5,026.7,000.0,038.3,030.8,30.0,-001.6,0010.29,0007.73,0007.35
2023-08-07 06:18:00,SystemResetWarning,0834.5,4.99,000.00,029.4,026.9,000.0,038.2,030.9,30.2,-001.6,0010.31,0007.72,0007.32
2023-08-07 06:19:00,SystemResetWarning,0834.5,5.01,000.00,029.4,027.2,000.0,038.2,030.9,30.3,-001.4,0010.34,0007.72,0007.31
2023-08-07 06:20:00,SystemResetWarning,0834.5,5.00,000.00,029.4,027.3,000.0,038.2,030.9,30.3,-001.2,0010.34,0007.71,0007.31
2023-08-07 06:21:00,SystemResetWarning,0834.5,5.01,000.00,029.4,027.5,000.0,038.2,030.9,30.3,-000.8,0010.28,0007.68,0007.30
2023-08-07 06:22:00,SystemResetWarning,0834.5,5.00,000.00,029.4,027.6,000.0,038.2,030.9,30.2,-000.5,0010.27,0007.70,0007.33
2023-08-07 06:23:00,SystemResetWarning,0834.4,4.99,000.00,029.4,027.7,000.0,038.2,031.0,30.0,-000.5,0010.37,0007.72,0007.35
2023-08-07 06:24:00,SystemResetWarning,0834.4,5.00,000.00,029.4,027.8,000.0,038.2,031.0,29.7,-000.2,0010.76,0007.73,0007.36
2023-08-07 06:25:00,SystemResetWarning,0834.5,4.99,000.00,029.5,027.9,000.0,038.2,031.0,29.7,-000.0,0010.91,0007.72,0007.36
2023-08-07 06:26:00,SystemResetWarning,0834.7,5.01,000.00,029.5,028.0,000.0,038.2,031.0,29.8,0000.7,0010.95,0007.74,0007.36
2023-08-07 06:27:00,SystemResetWarning,0834.9,5.00,000.00,029.5,028.0,000.0,038.2,031.0,29.8,0001.2,0011.01,0007.77,0007.36
2023-08-07 06:28:00,SystemResetWarning,0835.1,5.00,000.00,029.5,028.1,000.0,038.2,031.1,29.9,0001.3,0011.12,0007.78,0007.34
2023-08-07 06:29:00,SystemResetWarning,0835.2,5.00,000.00,029.5,028.2,000.0,038.2,031.1,29.9,0001.4,0011.08,0007.71,0007.26
2023-08-07 06:30:00,SystemResetWarning,0835.3,5.00,000.00,029.5,028.2,000.0,038.2,031.1,30.4,0001.3,0011.05,0007.63,0007.19
2023-08-07 06:31:00,SystemResetWarning,0835.2,5.00,000.00,029.6,028.2,000.0,038.2,031.1,30.9,0001.3,0011.06,0007.52,0007.08
2023-08-07 06:32:00,SystemResetWarning,0835.2,5.00,000.00,029.6,028.2,000.0,038.2,031.2,30.9,0000.7,0010.97,0007.44,0007.02
2023-08-07 06:33:00,SystemResetWarning,0835.3,5.01,000.00,029.6,028.2,000.0,038.2,031.1,31.0,0000.4,0010.90,0007.35,0006.93
2023-08-07 06:34:00,SystemResetWarning,0835.3,5.00,000.00,029.6,028.2,000.0,038.2,031.1,30.8,0000.2,0010.76,0007.22,0006.80
2023-08-07 06:35:00,SystemResetWarning,0835.2,5.00,000.00,029.6,028.2,000.0,038.2,031.1,30.7,-000.1,0010.27,0007.02,0006.63
2023-08-07 06:36:00,SystemResetWarning,0835.2,5.00,000.00,029.6,028.2,000.0,038.2,031.1,30.6,-000.1,0009.57,0006.84,0006.45
2023-08-07 06:37:00,SystemResetWarning,0835.1,5.00,000.00,029.6,028.2,000.0,038.2,031.2,30.6,0000.2,0009.47,0006.64,0006.26
2023-08-07 06:38:00,SystemResetWarning,0835.1,5.00,000.00,029.6,028.3,000.0,038.2,031.2,30.5,-000.3,0009.32,0006.42,0006.05
2023-08-07 06:39:00,SystemResetWarning,0835.1,5.00,000.00,029.6,028.3,000.0,038.2,031.2,29.9,-000.1,0008.93,0006.16,0005.83
2023-08-07 06:40:00,SystemResetWarning,0835.1,5.00,000.00,029.6,028.3,000.0,038.2,031.2,29.9,0000.2,0008.75,0006.00,0005.68
2023-08-07 06:41:00,SystemResetWarning,0835.1,5.00,000.00,029.7,028.4,000.0,038.2,031.2,30.2,0000.1,0008.73,0005.87,0005.56
2023-08-07 06:42:00,SystemResetWarning,0835.2,5.00,000.00,029.7,028.4,000.0,038.3,031.2,30.3,-000.6,0008.37,0005.71,0005.42
2023-08-07 06:43:00,SystemResetWarning,0835.2,5.00,000.00,029.7,028.4,000.0,038.3,031.3,30.2,-000.9,0008.24,0005.58,0005.28
2023-08-07 06:44:00,SystemResetWarning,0835.2,5.00,000.00,029.7,028.4,000.0,038.3,031.3,30.2,-001.2,0008.06,0005.41,0005.13
2023-08-07 06:45:00,SystemResetWarning,0835.2,5.00,000.00,029.7,028.5,000.0,038.3,031.3,30.3,-001.5,0008.02,0005.31,0005.01
2023-08-07 06:46:00,SystemResetWarning,0835.1,5.00,000.00,029.7,028.5,000.0,038.3,031.3,30.4,-001.3,0008.02,0005.23,0004.91
2023-08-07 06:47:00,SystemResetWarning,0835.1,5.00,000.00,029.7,028.5,000.0,038.3,031.3,30.4,-001.2,0007.94,0005.15,0004.82
2023-08-07 06:48:00,SystemResetWarning,0835.1,5.00,000.00,029.8,028.5,000.0,038.3,031.3,30.5,-001.3,0007.75,0005.07,0004.76
2023-08-07 06:49:00,SystemResetWarning,0835.1,5.00,000.00,029.8,028.6,000.0,038.4,031.3,30.4,-001.6,0007.59,0005.02,0004.71
2023-08-07 06:50:00,SystemResetWarning,0835.1,5.00,000.00,029.8,028.6,000.0,038.4,031.4,30.3,-002.2,0007.57,0004.99,0004.67
2023-08-07 06:51:00,SystemResetWarning,0835.1,4.99,000.00,029.8,028.6,000.0,038.4,031.4,30.2,-001.9,0007.53,0004.96,0004.65
2023-08-07 06:52:00,SystemResetWarning,0835.1,4.99,000.00,029.8,028.6,000.0,038.4,031.4,30.1,-002.6,0007.40,0004.94,0004.63
2023-08-07 06:53:00,SystemResetWarning,0835.1,4.99,000.00,029.8,028.6,000.0,038.4,031.4,30.0,-000.0,0007.49,0005.01,0004.69
2023-08-07 06:54:00,SystemResetWarning,0835.0,5.00,000.00,029.8,028.6,000.0,038.4,031.4,29.9,-000.9,0007.71,0005.14,0004.77
2023-08-07 06:55:00,SystemResetWarning,0835.0,5.00,000.00,029.8,028.6,000.0,038.4,031.4,29.9,-001.6,0007.85,0005.23,0004.83
2023-08-07 06:56:00,SystemResetWarning,0835.0,5.00,000.00,029.8,028.5,000.0,038.4,031.4,29.9,-001.0,0007.91,0005.30,0004.89
2023-08-07 06:57:00,SystemResetWarning,0835.0,5.01,000.00,029.8,028.5,000.0,038.5,031.4,29.8,-000.4,0007.89,0005.34,0004.94
2023-08-07 06:58:00,SystemResetWarning,0835.0,5.01,000.00,029.9,028.5,000.0,038.5,031.4,29.8,-000.3,0008.02,0005.38,0004.97
2023-08-07 06:59:00,SystemResetWarning,0835.2,5.00,000.00,029.9,028.5,000.0,038.5,031.4,29.8,-000.4,0008.10,0005.41,0005.00
